Weather in Lixoslavl

Russia / Tver Oblast     57°07′19″N   35°28′00″E
temp.,
°C
wind,
m/s
gust,
m/s
humid.,
%
clouds,
%
prec.,
mm/h
press.,
hPa
HPBL,
m
6 may, thu
thu600:00+4s22976 0.0 100622
03:00+6se2899100 0.0 1004204
06:00+8sse4119559 0.0 1002330
09:00+12sse61484100 0.0 1000652
12:00+14s91576100 0.4 9981349
15:00+11s81679100 1.1 9971593
18:00+7wsw61189100 0.6 1001943
21:00+6ssw411915 0.7 1003563
7 may, fri
fri700:00+5sw4119241 0.0 1004609
03:00+5sw5118499 0.0 1006839
06:00+4sw4119135 0.0 1007617
09:00+8sw611635 0.0 10081212
12:00+12ssw71048100 0.1 10082275
15:00+10sw696336 0.8 10091440
18:00+11sw485731 0.1 10091664
21:00+7sse3788100 0.1 1010171
8 may, sat
sat800:00+8sse2588100 0.1 1008194
03:00+8sse61387100 0.3 10061334
06:00+7sse61395100 1.4 1004635
09:00+9sse61194100 2.1 1002809
12:00+8sse4996100 2.4 1001633
15:00+9sse4895100 3.3 1000494
18:00+8sw4993100 5.9 10001057
21:00+4wsw51093100 7.7 1002897
9 may, sun
sun900:00+2w71597100 0.6 1004976
03:00+3w71392100 0.7 10071026
06:00+3w6128932 0.3 1011992
09:00+6wnw6127461 0.3 10141101
12:00+10wnw68445 0.0 10171933
15:00+11wnw573866 0.0 10192378
18:00+11nw37465 0.0 10212145
21:00+5w116214 0.0 102410
10 may, mon
mon1000:00+4ssw226924 0.0 102523
03:00+3ssw23775 0.0 102753
06:00+4ssw257876 0.0 1028119
09:00+10ssw475447 0.0 1028629
12:00+14sw564598 0.0 10271567
15:00+14sw575063 0.0 10271068
18:00+15sw35585 0.0 1027934
21:00+9ssw34815 0.0 102861